EW8735 Weather Reports


time (UTC)temp
C
wind
direction
speed
KPH
gust
KPH
rain 1hr
cm
rain 24hr
cm
rain mn
cm
humidity
%
barometer
mb
20260504081514 11 8 0.0 0.0 0.00 0.00 0.00 74 1005.4
20260504050118 14 8 0.0 0.0 0.00 0.00 0.00 64 1005.5
20260504044559 15 8 0.0 0.0 0.00 0.00 0.00 63 1005.6
20260504043105 15 8 0.0 0.0 0.00 0.00 0.00 63 1005.5
20260504041600 16 8 0.0 0.0 0.00 0.00 0.00 60 1005.4
20260504040105 16 8 0.0 0.0 0.00 0.00 0.00 59 1005.3
20260504034616 17 8 0.0 0.0 0.00 0.00 0.00 58 1005.2
20260504033104 17 8 0.0 0.0 0.00 0.00 0.00 57 1005.0
20260504031604 20 8 0.0 0.0 0.00 0.00 0.00 52 1005.0
20260504030057 22 8 0.0 0.0 0.00 0.00 0.00 47 1004.9
20260504024558 23 8 0.0 0.0 0.00 0.00 0.00 45 1004.9
20260504023056 23 8 0.0 0.0 0.00 0.00 0.00 40 1005.0
20260504021557 24 8 0.0 0.0 0.00 0.00 0.00 37 1005.1
20260504020104 25 4 0.0 0.0 0.00 0.00 0.00 35 1005.3
20260504014556 25 354 0.0 0.0 0.00 0.00 0.00 34 1005.5
20260504013152 26 354 0.0 0.0 0.00 0.00 0.00 33 1005.5
20260504011550 26 354 0.0 0.0 0.00 0.00 0.00 32 1005.7
20260504010050 26 350 0.0 0.0 0.00 0.00 0.00 31 1005.8
20260504004546 26 359 0.0 0.0 0.00 0.00 0.00 31 1006.0
20260504003047 26 359 0.0 0.0 0.00 0.00 0.00 30 1006.1
20260504001544 26 359 0.0 0.0 0.00 0.00 0.00 29 1006.3
20260504000046 27 4 0.0 0.0 0.00 0.00 0.00 28 1006.4
20260503234541 27 4 0.0 0.0 0.00 0.00 0.00 28 1006.5
20260503233040 26 4 0.0 0.0 0.00 0.00 0.00 30 1006.6
20260503231540 27 359 0.0 0.0 0.00 0.00 0.00 28 1006.7
20260503230039 27 354 0.0 0.0 0.00 0.00 0.00 29 1006.8
20260503224536 27 354 0.0 0.0 0.00 0.00 0.00 28 1006.9
20260503223034 27 354 0.0 0.0 0.00 0.00 0.00 24 1007.2
20260503221534 27 354 0.0 0.0 0.00 0.00 0.00 27 1007.2
20260503220032 27 354 0.0 0.0 0.00 0.00 0.00 33 1007.5
20260503214539 27 354 0.0 0.0 0.00 0.00 0.00 34 1007.6
20260503213029 27 359 0.0 0.0 0.00 0.00 0.00 29 1007.8
20260503211525 27 359 0.0 0.0 0.00 0.00 0.00 32 1008.1
20260503210024 27 354 0.0 0.0 0.00 0.00 0.00 32 1008.2
20260503204520 26 359 0.0 0.0 0.00 0.00 0.00 33 1008.3
20260503203017 26 354 0.0 0.0 0.00 0.00 0.00 37 1008.5
20260503201516 25 354 0.0 0.0 0.00 0.00 0.00 41 1008.8
20260503200013 25 354 0.0 0.0 0.00 0.00 0.00 38 1008.9
20260503194510 24 354 0.0 0.0 0.00 0.00 0.00 37 1009.2
20260503193009 24 354 0.0 0.0 0.00 0.00 0.00 36 1009.4
20260503191515 24 354 0.0 0.0 0.00 0.00 0.00 37 1009.6
20260503190007 23 354 0.0 0.0 0.00 0.00 0.00 42 1009.8
20260503184629 22 359 0.0 0.0 0.00 0.00 0.00 45 1009.9
20260503183102 22 359 0.0 0.0 0.00 0.00 0.00 46 1010.0
20260503181614 22 359 0.0 0.0 0.00 0.00 0.00 41 1010.2
20260503180116 22 354 0.0 0.0 0.00 0.00 0.00 45 1010.4
20260503174558 22 354 0.0 0.0 0.00 0.00 0.00 42 1010.4
20260503173102 22 354 0.0 0.0 0.00 0.00 0.00 46 1010.5
20260503171549 21 354 0.0 0.0 0.00 0.00 0.00 48 1010.5